Location: Unspecified
(0.0000°N, 0.0000°E)
Time: 15:38:07
(UTC+00:00)

Altair - Visible Passes

Search period start: 07 December 2025 00:00
Search period end: 17 December 2025 00:00
Orbit: 1501 x 1682 km, 47.2° (Epoch: 06 December)

Date Brightness Start Highest point End Pass type
(mag) Time Alt. Az. Time Alt. Az. Time Alt. Az.
07 Dec 9.0 18:59:33 10° S 19:05:49 18° SE 19:10:21 13° ESE visible
07 Dec 7.9 21:00:40 10° SW 21:08:23 58° SSW 21:08:23 58° SSW visible
08 Dec 9.2 18:35:03 10° SSE 18:40:27 15° SE 18:45:49 10° ESE visible
08 Dec 7.6 20:35:27 10° SW 20:44:48 74° S 20:44:48 74° S visible
09 Dec 9.2 18:10:46 10° SSE 18:15:04 13° SE 18:19:21 10° ESE visible
09 Dec 7.5 20:10:15 10° SSW 20:20:22 71° SE 20:21:16 68° E visible
09 Dec 9.5 22:17:19 10° W 22:19:19 15° W 22:19:19 15° W visible
10 Dec 7.7 19:45:05 10° SSW 19:55:06 64° SE 19:57:47 50° ENE visible
10 Dec 9.2 21:51:32 10° WSW 21:55:49 22° W 21:55:49 22° W visible
11 Dec 7.8 19:19:56 10° SSW 19:29:50 57° SE 19:34:20 35° ENE visible
11 Dec 8.8 21:25:51 10° WSW 21:32:23 30° WNW 21:32:23 30° WNW visible
12 Dec 7.9 18:54:51 10° SSW 19:04:34 51° SE 19:10:55 23° ENE visible
12 Dec 8.5 21:00:14 10° WSW 21:08:58 37° NW 21:08:58 37° NW visible
13 Dec 8.1 18:29:47 10° SSW 18:39:17 46° SE 18:47:32 14° ENE visible
13 Dec 8.3 20:34:40 10° WSW 20:43:58 41° NW 20:45:35 39° NNW visible
14 Dec 9.4 05:18:52 10° N 05:24:12 16° NE 05:29:29 10° E visible
14 Dec 8.3 18:04:45 10° SSW 18:14:00 41° SE 18:23:16 10° ENE visible
14 Dec 8.2 20:09:10 10° WSW 20:18:41 46° NW 20:22:13 35° N visible
15 Dec 9.4 04:54:27 10° NNE 04:58:53 14° NE 05:03:17 10° ENE visible
15 Dec 8.1 19:43:42 10° WSW 19:53:25 52° NW 19:58:53 28° N visible
16 Dec 9.5 04:30:21 10° NNE 04:33:33 12° NE 04:36:44 10° ENE visible
16 Dec 8.0 19:18:18 10° SW 19:28:08 58° NW 19:35:32 20° NNE visible
